Regional Weather Roundup
Issued by NWS

Home | Current Version | Previous Version | Text Only | Print | Product List | Glossary Off
Versions: 1 2 3 4 5 6 7 8 9 10 11 12 13 14 15 16 17 18 19 20 21 22 23 24 25 26 27 28 29 30 31 32 33 34 35 36 37 38 39 40 41 42 43 44 45 46 47 48 49 50

000
ASUS43 KLOT 202008
RWRIL

ILLINOIS REGIONAL WEATHER ROUNDUP
NATIONAL WEATHER SERVICE CHICAGO/ROMEOVILLE IL
200 PM CST MON NOV 20 2017

NOTE: "FAIR" INDICATES FEW OR NO CLOUDS BELOW 12,000 FEET WITH NO
SIGNIFICANT WEATHER AND/OR OBSTRUCTIONS TO VISIBILITY.

* THESE STATIONS ARE NOT UNDER NWS QUALITY CONTROL. THEY ALSO MAY NOT
  REPORT WEATHER SUCH AS PRECIPITATION OR FOG.

ILZ001-002-007-009-015-016-024-202100-
NORTHWEST ILLINOIS

CITY           SKY/WX    TMP DP  RH WIND       PRES   REMARKS
MOLINE         SUNNY     59  32  36 S16G31    29.71F
STERLING*      SUNNY     56  36  47 VRB7      29.75F
SAVANNA*       SUNNY     57  32  39 S12G23    29.71F
$$

ILZ003-004-008-010-011-017-018-202100-
NORTH CENTRAL ILLINOIS

CITY           SKY/WX    TMP DP  RH WIND       PRES   REMARKS
ROCKFORD       CLOUDY    53  33  46 S20G26    29.75F
FREEPORT*      SUNNY     53  33  47 S18       29.72F
ROCHELLE*      CLOUDY    53  36  51 S17G23    29.76F
DE KALB*       SUNNY     52  34  51 S22       29.77F
PERU*          SUNNY     54  31  41 SW22G29   29.80F
$$

ILZ005-006-012>014-019>023-202100-
NORTHEAST ILLINOIS

CITY           SKY/WX    TMP DP  RH WIND       PRES   REMARKS
CHICAGO-OHARE  MOSUNNY   51  32  48 SW22      29.78F
CHICAGO-MIDWAY MOSUNNY   53  32  44 SW18G26   29.80F
AURORA         SUNNY     52  34  50 S16       29.80F
LANSING*       SUNNY     51  37  57 SW21G26   29.84F
JOLIET*        SUNNY     54  34  47 SW15G23   29.82F
WAUKEGAN       CLOUDY    51  32  48 SW18      29.73F
DUPAGE AIRPORT SUNNY     51  33  50 S17G28    29.78F
KANKAKEE*      SUNNY     52  33  47 SW20G30   29.88S
WHEELING       SUNNY     53  31  42 SW16G24   29.78F
MORRIS*        SUNNY     53  35  50 SW21G28   29.81F
ROMEOVILLE*    SUNNY     52  34  50 SW18G33   29.81F
NORTHERLY ISL    N/A     52  29  41 S17         N/A
$$

LMZ740>746-202100-
SOUTHERN LAKE MICHIGAN

STATION/POSITION SKY/WX   TEMP    WIND        PRES    VSBY  WAVE
                          AIR SEA DIR/SP/G                  HT/PER
                          (F)     (DEG/KT/KT) (MB)    (MI)  (FT/S)
SOUTHERN BUOY              46 49  220/ 19/ 23 1009.0          6/ 6
HARRISON CRIB              51     220/ 23/ 27   N/A
BURNHAM HARBOR             52     190/ 14/ 20   N/A
CALUMET HARBOR             51     190/ 14/ 22 1009.0F
BURNS HARBOR               51     220/ 21/ 28 1010.8F
MICHIGAN CITY              50     190/ 24/ 27   N/A
$$

ILZ025>027-034>036-040-047-049-050-058-095>099-202100-
WEST-CENTRAL ILLINOIS

CITY           SKY/WX    TMP DP  RH WIND       PRES   REMARKS
QUINCY         SUNNY     59  31  34 S21G31    29.82F
GALESBURG*     SUNNY     58  36  44 S22G28    29.78F
MACOMB*        SUNNY     57  34  41 SW17G26   29.83F
JACKSONVILLE*  SUNNY     58  31  35 S20G28    29.86F
PITTSFIELD*    SUNNY     60  31  34 S20G25    29.86F
$$

ILZ028>032-037-038-041>044-048-051>054-059>061-202100-
CENTRAL ILLINOIS

CITY           SKY/WX    TMP DP  RH WIND       PRES   REMARKS
PONTIAC        SUNNY     54  34  47 SW20G31   29.85F
BLOOMINGTON    SUNNY     53  34  48 SW26G33   29.86F
DECATUR        CLOUDY    54  32  43 S21G31    29.92F
PEORIA         SUNNY     57  32  38 SW22G29   29.83F
LACON*         SUNNY     55  31  39 SW20G26   29.80F
LINCOLN*       SUNNY     56  36  46 S13G22    29.89S
SPRINGFIELD    SUNNY     58  33  39 S22G28    29.89F
TAYLORVILLE    SUNNY     54  33  44 S18G30    29.93F
$$

ILZ033-039-045-046-055>057-062-063-202100-
EAST-CENTRAL ILLINOIS

CITY           SKY/WX    TMP DP  RH WIND       PRES   REMARKS
CHAMPAIGN      SUNNY     51  35  54 S24G31    29.92F
DANVILLE*      SUNNY     50  33  51 S23G30    29.91F
RANTOUL*       SUNNY     53  38  57 S18G25    29.91F
MATTOON        SUNNY     50  32  50 S17G25    29.96F
PARIS*         CLOUDY    49  34  54 S17       29.99F
$$

ILZ079-100>102-202100-
SOUTHWEST ILLINOIS

CITY           SKY/WX    TMP DP  RH WIND       PRES   REMARKS
ALTON          MOSUNNY   57  32  38 SW16G23   29.94F
CAHOKIA*       SUNNY     60  25  26 S14G21    29.95F
SPARTA*        SUNNY     54  29  39 S17G23    30.01F
$$

ILZ064>066-069>071-074>076-080>082-084>086-088>090-092>094-202100-
SOUTH-CENTRAL ILLINOIS

CITY           SKY/WX    TMP DP  RH WIND       PRES   REMARKS
CARBONDALE     SUNNY     53  29  39 S16       30.05F
CAIRO*         SUNNY     52  30  43 S10       30.10F
EFFINGHAM*     SUNNY     54  31  41 S13G21    30.01F
MARION         MOSUNNY   52  28  40 S14G21    30.06F
MT. VERNON     SUNNY     53  31  42 SW22      30.03F
CENTRALIA*     SUNNY     54  32  43 S18G24    30.00F
SALEM*         SUNNY     55  29  37 S14       30.00F
METROPOLIS*    SUNNY     53  28  38 S13       30.09F
$$

ILZ067-068-072-073-078-083-087-091-202100-
SOUTHEAST ILLINOIS

CITY           SKY/WX    TMP DP  RH WIND       PRES   REMARKS
LAWRENCEVILLE  SUNNY     51  31  46 S20       30.05F
FLORA*         SUNNY     53  32  44 S16       30.02F
FAIRFIELD*     SUNNY     52  29  42 S7        30.03F
HARRISBURG*    SUNNY     52  28  38 S14       30.07F
ROBINSON*      SUNNY     51  31  45 S15G24    30.03F
CARMI*         SUNNY     53  31  43 S14G21    30.06F
$$

ABBREVIATIONS USED IN REMARKS
   TC - TEMPERATURE IN CELSIUS
  WCI - WIND CHILL INDEX
   HX - HEAT INDEX
  VSB - VISIBILITY
$$





USA.gov is the U.S. government's official web portal to all federal, state and local government web resources and services.